Accueil
METAR-TAF:

METAR-TAF

Aéroports :

Dübendorf, Suisse

latitude: 47-23-55N, longitude: 8-38-53E, altitude: 448 m

Observation

Le bulletin a été fait il y a 1 heure et 3 minutes, à 08:50 UTC
Vent 1 kt de direction variable
Température 24°C
Humidité 65%
Pression 1021 hPa
Visibilité 10 km ou plus
Quelques nuages à une hauteur de 2000 ft

METAR: LSMD 170850Z VRB01KT 9999 FEW020 24/17 Q1021 RMK BLU+

Heure: 11:53 (09:53 UTC)


TAF: absent

Observations et prévisions météorologiques de plus de 4000 aéroports (messages METAR et TAF).

Les stations disponibles sont représentées par des disques jaunes et rouges sur la carte.

Passer la souris dessus pour voir le nom de la station.

Cliquer dessus pour voir les observations et prévisions météorologiques.

Pour changer de carte: cliquez sur les boutons verts avec une croix noire pour zoomer, sur le bouton vert avec un tiret pour effectuer un zoom arrière, ou sur les flèches vertes pour les cartes adjacentes.


METAR-TAF: